Skip Page Navigation
NASA JPL Caltech
NASA Logo - Jet Propulsion Laboratory + View the NASA Portal
+ Center for Near-Earth Object Studies
JPL Home Earth Solar System Stars & Galaxies Technology
JPL Solar System Dynamics
BODIES ORBITS EPHEMERIDES TOOLS PHYSICAL DATA DISCOVERY FAQ SITE MAP
JPL Small-Body Database Browser
Search: [ help ]  
(2017 GY10)
Classification: Asteroid          SPK-ID: 3922264
Ephemeris | Orbit Diagram | Orbital Elements | Mission Design | Physical Parameters | Close-Approach Data ]

[ show orbit diagram ]
Orbital Elements at Epoch 2459000.5 (2020-May-31.0) TDB
Reference: JPL 3 (heliocentric ecliptic J2000)
 Element Value Uncertainty (1-sigma)   Units 
e .393689011616683 8.5562e-08  
a 4.765178292219534 2.0477e-07 au
q 2.889179960178353 4.4612e-07 au
i 21.72262512594081 8.1932e-06 deg
node 154.5739163744206 4.8392e-05 deg
peri 148.0531032329917 5.3046e-05 deg
M 84.67245285058394 2.1414e-05 deg
tp 2458106.871936245697
(2017-Dec-19.37193625)
0.00018793 TDB
period 3799.418726173474
10.40
0.00024491
6.705e-07
d
yr
n .09475133591357762 6.1076e-09 deg/d
Q 6.641176624260716 2.8539e-07 au
  Orbit Determination Parameters
   # obs. used (total)      70  
   data-arc span      8056 days (22.06 yr)  
   first obs. used      1997-10-03  
   last obs. used      2019-10-24  
   planetary ephem.      DE431  
   SB-pert. ephem.      SB431-N16  
   condition code      0  
   norm. resid. RMS      .56559  
   source      ORB  
   producer      Otto Matic  
   solution date      2019-Dec-28 14:02:00  

Additional Information
 Earth MOID = 1.89975 au 
 Jupiter MOID = .358334 au 
 T_jup = 2.726 
[ show covariance matrix ]

Ephemeris | Orbit Diagram | Orbital Elements | Mission Design | Physical Parameters | Close-Approach Data ]

Physical Parameter Table
Parameter Symbol Value Units Sigma Reference Notes
absolute magnitude H 15.0   .55612 E2019Y81 autocmod 2.8

[ show close-approach data ]
Alternate Designations
 2017 GY10 = 2007 OJ2 
Ephemeris | Orbit Diagram | Orbital Elements | Mission Design | Physical Parameters | Close-Approach Data ]
ABOUT SSD CREDITS/AWARDS PRIVACY/COPYRIGHT GLOSSARY LINKS
FirstGov 2020-Aug-04 20:55 UT
(server date/time)  
NASA Home Page
Site Manager:   Ryan S. Park
Webmaster  Alan B. Chamberlin